This is the latest recevied weather packets stored in our database for station/object KF0ZH. If no packets are shown the sender has not sent any weather packets the latest 10 day(s).
| Time | Temp. | Humidity | Pressure | Rain* | Wind** | Luminosity | Snow |
|---|---|---|---|---|---|---|---|
| 1787771230 | 23.89° C | 71% | 1013.3 hPa | 0 mm | 1.34 m/s, 7° | - | - |
| 1787770929 | 23.89° C | 72% | 1013.2 hPa | 0 mm | 0 m/s | - | - |
| 1787770629 | 23.89° C | 72% | 1013.3 hPa | 0 mm | 0 m/s | - | - |
| 1787770033 | 23.89° C | 70% | 1013.3 hPa | 0 mm | 1.79 m/s, 331° | - | - |
| 1787769728 | 23.89° C | 71% | 1013.3 hPa | 0 mm | 0 m/s | - | - |
| 1787769131 | 23.89° C | 70% | 1013.3 hPa | 0 mm | 2.68 m/s, 291° | - | - |
| 1787768609 | 23.33° C | 72% | 1013.4 hPa | 0 mm | 1.79 m/s, 327° | - | - |
| 1787768531 | 23.33° C | 72% | 1013.4 hPa | 0 mm | 1.79 m/s, 327° | - | - |
| 1787768231 | 23.89° C | 72% | 1013.4 hPa | 0 mm | 0 m/s | - | - |
| 1787767932 | 23.89° C | 72% | 1013.4 hPa | 0 mm | 1.34 m/s, 320° | - | - |
| 1787767635 | 23.89° C | 71% | 1013.4 hPa | 0 mm | 0 m/s | - | - |
| 1787767329 | 23.33° C | 71% | 1013.5 hPa | 0 mm | 2.24 m/s, 267° | - | - |
| 1787767106 | 23.33° C | 72% | 1013.5 hPa | 0 mm | 2.68 m/s, 21° | - | - |
| 1787767030 | 23.33° C | 72% | 1013.5 hPa | 0 mm | 2.68 m/s, 21° | - | - |
| 1787766431 | 23.89° C | 71% | 1013.5 hPa | 0 mm | 2.24 m/s, 320° | - | - |
| 1787766131 | 23.33° C | 72% | 1013.5 hPa | 0 mm | 0 m/s | - | - |
| 1787765833 | 23.33° C | 73% | 1013.4 hPa | 0 mm | 2.68 m/s, 316° | - | - |
| 1787765529 | 23.89° C | 72% | 1013.4 hPa | 0 mm | 2.24 m/s, 355° | - | - |
| 1787765231 | 23.89° C | 71% | 1013.4 hPa | 0 mm | 4.02 m/s, 315° | - | - |
| 1787764634 | 23.33° C | 75% | 1013.4 hPa | 0 mm | 2.68 m/s, 330° | - | - |
| 1787764333 | 23.33° C | 76% | 1013.4 hPa | 0 mm | 0 m/s | - | - |
| 1787764023 | 23.33° C | 75% | 1013.5 hPa | 0 mm | 2.24 m/s, 316° | - | - |
| 1787763723 | 23.33° C | 75% | 1013.4 hPa | 0 mm | 2.68 m/s, 337° | - | - |
| 1787763423 | 23.33° C | 75% | 1013.4 hPa | 0 mm | 3.13 m/s, 336° | - | - |
| 1787763123 | 22.78° C | 76% | 1013.5 hPa | 0 mm | 0 m/s | - | - |
* Rain latest hour (hover to see other rain measurements)
** Current wind speed in m/s (hover to see current wind gust speed)